| time (UTC) | temp F | wind direction | speed knots | gust knots | rain 1hr in | rain 24hr in | rain mn in | humidity % | barometer mb |
| 20260508053503 | 52 | 100 | 9.6 | 0.0 | 0.00 | 0.00 | 0.00 | 94 | 1015.0 |
| 20260508050502 | 52 | 110 | 9.6 | 0.0 | 0.00 | 0.00 | 0.00 | 88 | 1015.0 |
| 20260508043503 | 52 | 110 | 8.7 | 0.0 | 0.00 | 0.00 | 0.00 | 82 | 1015.0 |
| 20260508040502 | 52 | 110 | 8.7 | 0.0 | 0.00 | 0.00 | 0.00 | 82 | 1015.0 |
| 20260508033503 | 50 | 120 | 7.0 | 0.0 | 0.00 | 0.00 | 0.00 | 88 | 1015.0 |
| 20260508030502 | 50 | 110 | 7.0 | 0.0 | 0.00 | 0.00 | 0.00 | 88 | 1014.0 |
| 20260508023502 | 50 | 110 | 8.7 | 0.0 | 0.00 | 0.00 | 0.00 | 88 | 1014.0 |
| 20260508020502 | 50 | 110 | 7.8 | 0.0 | 0.00 | 0.00 | 0.00 | 88 | 1014.0 |
| 20260508013502 | 52 | 110 | 7.8 | 0.0 | 0.00 | 0.00 | 0.00 | 82 | 1014.0 |
| 20260508010502 | 52 | 110 | 8.7 | 0.0 | 0.00 | 0.00 | 0.00 | 82 | 1014.0 |
| 20260508003502 | 52 | 110 | 8.7 | 0.0 | 0.00 | 0.00 | 0.00 | 82 | 1014.0 |
| 20260508000503 | 52 | 110 | 8.7 | 0.0 | 0.00 | 0.00 | 0.00 | 82 | 1014.0 |
| 20260507233503 | 54 | 110 | 9.6 | 0.0 | 0.00 | 0.00 | 0.00 | 77 | 1014.0 |
| 20260507230502 | 54 | 110 | 9.6 | 0.0 | 0.00 | 0.00 | 0.00 | 77 | 1014.0 |
| 20260507223502 | 54 | 110 | 11.3 | 0.0 | 0.00 | 0.00 | 0.00 | 77 | 1014.0 |
| 20260507220502 | 55 | 120 | 9.6 | 0.0 | 0.00 | 0.00 | 0.00 | 72 | 1014.0 |
| 20260507213503 | 55 | 120 | 11.3 | 0.0 | 0.00 | 0.00 | 0.00 | 72 | 1014.0 |
| 20260507210503 | 57 | 120 | 11.3 | 0.0 | 0.00 | 0.00 | 0.00 | 67 | 1014.0 |
| 20260507203502 | 57 | 120 | 11.3 | 0.0 | 0.00 | 0.00 | 0.00 | 67 | 1014.0 |
| 20260507200502 | 61 | 120 | 11.3 | 0.0 | 0.00 | 0.00 | 0.00 | 63 | 1014.0 |
| 20260507193502 | 61 | 130 | 13.9 | 0.0 | 0.00 | 0.00 | 0.00 | 63 | 1014.0 |
| 20260507190503 | 63 | 120 | 13.0 | 0.0 | 0.00 | 0.00 | 0.00 | 59 | 1014.0 |
| 20260507183503 | 64 | 110 | 12.2 | 0.0 | 0.00 | 0.00 | 0.00 | 56 | 1014.0 |
| 20260507180502 | 66 | 140 | 11.3 | 0.0 | 0.00 | 0.00 | 0.00 | 56 | 1014.0 |
| 20260507173502 | 68 | 140 | 11.3 | 0.0 | 0.00 | 0.00 | 0.00 | 53 | 1014.0 |
| 20260507170502 | 70 | 150 | 11.3 | 0.0 | 0.00 | 0.00 | 0.00 | 50 | 1013.0 |
| 20260507163502 | 70 | 150 | 12.2 | 0.0 | 0.00 | 0.00 | 0.00 | 46 | 1013.0 |
| 20260507160503 | 72 | 150 | 13.9 | 0.0 | 0.00 | 0.00 | 0.00 | 44 | 1013.0 |
| 20260507153501 | 73 | 150 | 14.8 | 0.0 | 0.00 | 0.00 | 0.00 | 41 | 1013.0 |
| 20260507150502 | 73 | 140 | 14.8 | 0.0 | 0.00 | 0.00 | 0.00 | 38 | 1013.0 |
| 20260507143503 | 73 | 150 | 13.9 | 0.0 | 0.00 | 0.00 | 0.00 | 41 | 1014.0 |
| 20260507140502 | 75 | 150 | 14.8 | 0.0 | 0.00 | 0.00 | 0.00 | 34 | 1014.0 |
| 20260507133503 | 75 | 150 | 13.9 | 0.0 | 0.00 | 0.00 | 0.00 | 34 | 1014.0 |
| 20260507130502 | 75 | 150 | 14.8 | 0.0 | 0.00 | 0.00 | 0.00 | ||
| 20260507123502 | 75 | 150 | 13.0 | 0.0 | 0.00 | 0.00 | 0.00 | 34 | 1014.0 |
| 20260507120502 | 75 | 140 | 14.8 | 0.0 | 0.00 | 0.00 | 0.00 | 34 | 1015.0 |
| 20260507113502 | 75 | 160 | 12.2 | 0.0 | 0.00 | 0.00 | 0.00 | 31 | 1015.0 |
| 20260507110502 | 75 | 150 | 13.9 | 0.0 | 0.00 | 0.00 | 0.00 | 31 | 1015.0 |
| 20260507103503 | 75 | 160 | 11.3 | 0.0 | 0.00 | 0.00 | 0.00 | 31 | 1015.0 |
| 20260507100502 | 73 | 160 | 12.2 | 0.0 | 0.00 | 0.00 | 0.00 | 31 | 1015.0 |
| 20260507093502 | 72 | 170 | 8.7 | 0.0 | 0.00 | 0.00 | 0.00 | 31 | 1015.0 |
| 20260507090502 | 73 | 150 | 12.2 | 0.0 | 0.00 | 0.00 | 0.00 | 31 | 1015.0 |
| 20260507083502 | 72 | 150 | 9.6 | 0.0 | 0.00 | 0.00 | 0.00 | 33 | 1015.0 |
| 20260507080503 | 72 | 160 | 8.7 | 0.0 | 0.00 | 0.00 | 0.00 | 33 | 1016.0 |
| 20260507073503 | 70 | 150 | 9.6 | 0.0 | 0.00 | 0.00 | 0.00 | 35 | 1016.0 |
| 20260507070502 | 66 | 130 | 8.7 | 0.0 | 0.00 | 0.00 | 0.00 | 46 | 1016.0 |
| 20260507063503 | 63 | 120 | 9.6 | 0.0 | 0.00 | 0.00 | 0.00 | 52 | 1016.0 |
| 20260507060501 | 61 | 100 | 11.3 | 0.0 | 0.00 | 0.00 | 0.00 | 55 | 1016.0 |